Tracking 19176 objects as of 27-May-2018
HD Live streaming from Space Station
objects crossing your sky now

USA 158

Track USA 158 now!
USA 158 is classified as:


NORAD ID: 26770
Int'l Code: 2001-020A
Perigee: 36,136.8 km
Apogee: 36,265.1 km
Inclination: 6.8 °
Period: 1,456.9 minutes
Semi major axis: 42571 km
RCS: Unknown
Launch date: May 18, 2001
Source: United States (US)
Launch site: AIR FORCE EASTERN TEST RANGE (AFETR)

Advanced technology demonstration satellite with laser communications experiment and operational UHF communications mission.
aabbcc
Your satellite tracking list
Your tracking list is empty




NASA's NSSDC Master Catalog

Two Line Element Set (TLE):
1 26770U 01020A   18111.77752749 0.00000000  00000-0  00000-0 0    08
2 26770   6.7547  45.8807 0015070  45.3335 314.8014  0.98836669    07
Source of the keplerian elements: McCants